GLOBALSTAR M075

Last updated on Sat Sep 05 2026 00:03:15 GMT+0000 (Coordinated Universal Time)

1 37192U 10054E 26247.56978751 -.00000089 00000+0 84987-4 0 9998 2 37192 51.9934 268.4932 0000378 86.7516 88.8400 12.62260452731964
UTC large
Height (km)
Speed (km/s)
/
Latitude / Longitude
Inclination (degrees)
Orbital Period (minutes)
Azimuth
Elevation
Range (km)
Doppler Factor

Next 0 passes for location: London (51.5072 / 0.1276)

No passes found over London.
GLOBALSTAR M075